This demonstration page uses our WeatherBlox Daily Observations layout. Learn more.

Left ArrowRight Arrow

31.84235, -102.49876

Hourly Observations for August 6, 2015

Temp ( °F °C ) Dew Point ( °F °C ) Humidity (%) Winds ( mph kmh ) Pressure ( in mb ) Visibility ( mi km ) Precip ( " mm )
12:53 am 00:53 Clear 86 30 56 13.3 36 36 S 12 19 29.80 1009 10 16 0.00 0.00
1:53 am 01:53 Clear 86 30 57 13.9 37 37 S 16 26 29.80 1009 10 16 0.00 0.00
2:53 am 02:53 Clear 84 28.9 58 14.4 41 41 S 15 24 29.80 1009 10 16 0.00 0.00
3:53 am 03:53 Clear 82 27.8 59 15 46 46 SSW 16 26 29.80 1009 10 16 0.00 0.00
4:53 am 04:53 Clear 81 27.2 59 15 47 47 SSW 10 17 29.80 1009 10 16 0.00 0.00
5:53 am 05:53 Clear 80 26.7 59 15 49 49 SSW 12 19 29.82 1010 10 16 0.00 0.00
6:53 am 06:53 Clear 79 26.1 59 15 50 50 SSW 13 20 29.83 1010 10 16 0.00 0.00
7:53 am 07:53 Sunny 78 25.6 61 16.1 56 56 S 10 17 29.84 1011 10 16 0.00 0.00
8:53 am 08:53 Sunny 81 27.2 62 16.7 53 53 S 16 26 29.86 1011 10 16 0.00 0.00
9:53 am 09:53 Sunny 86 30 61 16.1 43 43 SSW 14 22 29.85 1011 10 16 0.00 0.00
10:53 am 10:53 Sunny 90 32.2 60 15.6 37 37 S 10 17 29.86 1011 10 16 0.00 0.00
11:53 am 11:53 Sunny 94 34.4 57 13.9 29 29 S 13 20 29.85 1011 10 16 0.00 0.00
12:53 pm 12:53 Sunny 95 35 56 13.3 27 27 S 9 15 29.84 1011 10 16 0.00 0.00
1:53 pm 13:53 Sunny 98 36.7 53 11.7 22 22 SSE 8 13 29.82 1010 10 16 0.00 0.00
2:53 pm 14:53 Sunny 100 37.8 52 11.1 20 20 S 17 28 29.80 1009 10 16 0.00 0.00
3:53 pm 15:53 Sunny 101 38.3 49 9.4 17 17 undefined N/A 29.77 1008 10 16 0.00 0.00
4:53 pm 16:53 Sunny 102 38.9 48 8.9 16 16 S 13 20 29.75 1007 10 16 0.00 0.00
5:53 pm 17:53 Sunny 102 38.9 49 9.4 17 17 SSE 15 24 29.73 1007 10 16 0.00 0.00
6:53 pm 18:53 Sunny 101 38.3 47 8.3 16 16 SSE 7 11 29.72 1007 10 16 0.00 0.00
7:53 pm 19:53 Sunny 99 37.2 49 9.4 18 18 SSE 12 19 29.72 1007 10 16 0.00 0.00
8:53 pm 20:53 Clear 96 35.6 49 9.4 20 20 SE 10 17 29.73 1007 10 16 0.00 0.00
9:53 pm 21:53 Clear 92 33.3 51 10.6 25 25 SSE 13 20 29.75 1007 10 16 0.00 0.00
10:53 pm 22:53 Clear 91 32.8 53 11.7 27 27 S 12 19 29.77 1008 10 16 0.00 0.00
11:53 pm 23:53 Clear 89 31.7 55 12.8 31 31 S 13 20 29.78 1008 10 16 0.00 0.00

Powered by AerisWeather